User: anonymous   Login
Location: Banios
(43.0451°N, 0.2335°E)
Time: 13:08:59
(UTC+00:00)
Language:

Nadezhda 4 Rocket - Orbit

View from above orbital plane
View from above orbital plane
View from above satellite
View from above satellite

Ground track
Ground track

The orbit data is extracted from the following two-line orbital elements,

1 23180U 94041B   21104.58808554  .00000005  00000-0 -98440-5 0  9999
2 23180  82.9459 331.1740 0027639 266.4396 152.3794 13.77995953345095
Epoch (UTC): 14 April 2021 14:06:50
Eccentricity: 0.0027639
inclination: 82.9459°
perigee height: 950 km
apogee height: 991 km
right ascension of ascending node: 331.1740°
argument of perigee: 266.4396°
revolutions per day: 13.77995953
mean anomaly at epoch: 152.3794°
orbit number at epoch: 34509

The dashed part of the orbit path shows where the satellite is in the earth's shadow,  

DLR